Location: Bartshausen
(51.8454°N, 9.8167°E)
Time: 09:37:10
(UTC+00:00)

SL-16 R/B - Pass Details

Date: 08 November 2025
Orbit: 841 x 844 km, 71.0° (Epoch: 12 December)

Event Time Altitude Azimuth Distance (km) Brightness Sun altitude
Exits shadow 05:47:56 - 309° (NW) 2,823 4.3 -6.5°
Reaches altitude 10° 05:49:56 10° 326° (NW) 2,475 4.2 -6.2°
Maximum altitude 05:52:00 12° 347° (NNW) 2,340 4.2 -5.9°
Drops below altitude 10° 05:54:06 10° 9° (N) 2,477 4.5 -5.6°
Sets 05:58:26 0° 40° (NE) 3,414 5.6 -5.0°
